Home   Weather   Chicago   Past weeks

Flag for USA Past Weather in Chicago, Illinois, USA — Yesterday and Last 2 Weeks

Now
33 °F

Fog.


Feels Like: 23 °F
Forecast: 36 / 41 °F
Wind: 14 mph from Southwest

Location: Chicago Midway Airport

Current Time: Jan 18, 2017 at 12:31:32 pm

Latest Report: Jan 18, 2017 at 11:53 am


Visibility: 4 mi

Pressure: 30.14 "Hg

Humidity: 96%

Dew Point: 32 °F

Location of ChicagoLocation

Past Weather in Chicago — Graph

°F

Chicago Temperature Yesterday

Maximum temperature yesterday: 40 °F (at 5:17 am)
Minimum temperature yesterday: 33 °F (at 11:53 pm)
Average temperature yesterday: 36 °F

High & Low Weather Summary for the Past Weeks

 TemperatureHumidityPressure
High52 °F (Jan 10, 2:53 pm)100% (Jan 16, 10:06 pm)30.83 "Hg (Jan 16, 10:06 pm)
Low1 °F (Jan 6, 6:53 am)34% (Jan 8, 1:53 pm)29.24 "Hg (Jan 10, 2:22 pm)
Average25 °F70%30.20 "Hg
* Reported Jan 3 10:53 am — Jan 18 10:53 am, Chicago, Weather by CustomWeather, © 2017

Note: Actual official high and low records may vary slightly from our data, if they occured in-between our weather recording intervals... More about our weather records

Advertising

Chicago Weather History for the Previous 24 Hours

Scroll right to see more
 ConditionsComfort  
Time TempWeatherWind HumidityBarometerVisibility
10:53 am
Wed, Jan 18
32 °FIce fog.14 mph100%30.16 "Hg3 mi
9:53 am32 °FIce fog.8 mph100%30.18 "Hg4 mi
8:53 am32 °FLow clouds.10 mph96%30.18 "Hg7 mi
7:53 am33 °FLow clouds.8 mph92%30.17 "Hg7 mi
7:10 am33 °FFog.13 mph96%30.12 "Hg3 mi
6:53 am33 °FFog.10 mph96%30.15 "Hg2 mi
5:53 am33 °FFog.10 mph96%30.13 "Hg2 mi
4:53 am33 °FFog.12 mph96%30.13 "Hg1 mi
3:53 am33 °FFog.9 mph96%30.11 "Hg1 mi
2:53 am33 °FFog.12 mph96%30.10 "Hg1 mi
1:53 am33 °FFog.9 mph96%30.08 "Hg2 mi
12:53 am34 °FFog.7 mph92%30.06 "Hg2 mi
11:53 pm
Tue, Jan 17
33 °FFog.8 mph100%30.05 "Hg2 mi
10:53 pm34 °FFog.10 mph100%30.03 "Hg4 mi
9:53 pm34 °FDrizzle. Fog.12 mph100%30.03 "Hg5 mi
8:53 pm34 °FFog.8 mph97%30.02 "Hg5 mi
7:53 pm34 °FFog.13 mph97%30.02 "Hg5 mi
6:53 pm34 °FDrizzle. Fog.7 mph100%30.01 "Hg2 mi
5:53 pm35 °FDrizzle. Fog.10 mph96%29.99 "Hg4 mi
4:53 pm35 °FLow clouds.14 mph96%29.97 "Hg7 mi
3:53 pm36 °FDrizzle. Fog.12 mph97%29.94 "Hg6 mi
2:53 pm37 °FLow clouds.10 mph93%29.92 "Hg10 mi
1:53 pm37 °FLow clouds.12 mph93%29.90 "Hg10 mi
12:53 pm37 °FLow clouds.10 mph96%29.89 "Hg8 mi
Weather by CustomWeather, © 2017

See weather overviewHow to use our weather pages